Cloud_Cover
100 100 100 100 100 100 100 97 89 100 74 90 100 100 100 100 100 92 100 98 100 95 60 60 75 46 34 5 5 67 100 91 4 5 5 5 5 0 0 0 9 12 74 95
100 100 100 100 100 100 100 100 100 100 95 45 100 100 100 100 100 100 99 87 100 100 100 100 100 98 100 79 5 6 77 77 77 5 5 5 5 5 5 4 5 5 0 0
100 100 100 100 100 100 100 100 100 100 100 100 97 88 98 100 100 100 100 100 100 100 100 93 94 97 48 95 55 5 52 82 79 29 5 5 5 5 5 14 20 16 12 20
100 100 100 100 100 100 100 100 100 66 5 5 5 5 69 70 99 100 100 100 100 100 47 100 69 81 100 72 20 64 20 58 100 100 80 62 61 74 90 94 45 83 99 99
96 65 60 100 100 100 99 39 5 4 5 5 1 1 34 35 68 100 100 100 100 100 26 5 76 100 95 92 98 17 92 85 82 92 94 100 100 100 100 98 100 100 100 100
100 96 100 100 100 100 100 100 82 79 26 5 5 45 98 100 100 100 100 100 100 100 100 25 96 100 100 96 100 100 100 100 100 100 100 100 100 100 100 100 100 100 100 100
97 100 99 100 100 100 100 100 100 100 100 100 99 34 70 100 6 5 11 81 98 100 100 100 16 100 100 100 100 100 100 100 100 100 100 100 100 100 100 100 100 100 100 100
91 100 100 100 100 100 100 100 100 100 100 100 100 27 68 100 99 19 11 86 95 100 100 100 100 100 100 100 100 100 100 100 100 100 100 100 100 100 100 100 100 100 100 100
100 99 30 68 100 100 85 100 100 100 95 14 21 5 6 5 5 8 33 74 98 100 100 100 100 100 100 100 100 100 100 100 100 100 100 100 100 100 100 100 100 100 100 100
100 100 100 100 100 100 99 86 59 100 35 6 4 5 0 0 0 5 3 8 68 100 100 100 100 100 100 100 100 100 100 100 100 100 100 100 100 100 100 100 100 100 100 100
64 70 54 9 5 39 3 2 2 5 3 2 2 5 0 0 8 18 80 100 100 100 100 100 100 100 100 100 100 100 100 100 100 100 100 100 100 100 100 100 100 100 100 100
89 61 5 1 3 17 0 2 0 1 0 0 4 3 2 38 92 72 86 100 100 100 100 100 100 100 100 100 100 100 100 100 100 100 100 100 100 100 100 100 100 100 100 100
42 83 41 18 37 17 6 5 20 14 0 1 2 10 76 100 98 100 90 100 100 100 100 100 100 100 100 100 100 100 100 100 100 100 100 100 100 100 100 100 100 100 100 100
63 61 40 100 100 92 61 100 100 96 22 50 70 70 87 100 97 100 100 100 100 100 100 100 100 100 100 100 100 100 100 100 100 100 100 100 100 100 100 100 100 100 100 100
97 79 91 98 100 100 100 100 100 90 67 88 99 100 100 100 100 100 100 100 100 100 100 100 100 100 100 100 100 100 100 100 100 100 100 100 100 100 100 100 100 100 100 100
16 29 100 100 100 100 100 100 100 99 100 100 100 100 100 100 100 100 100 100 100 100 100 100 100 100 100 100 100 100 100 100 100 100 100 100 100 100 100 100 100 100 100 100
83 90 75 100 91 92 100 100 100 100 100 100 100 100 100 100 100 100 100 100 100 100 100 100 100 100 100 100 100 100 100 100 100 100 100 100 100 100 100 100 100 100 100 100
100 100 100 97 100 99 100 100 100 100 100 100 100 100 100 100 100 100 100 100 100 100 100 100 100 100 100 100 100 100 100 100 100 100 100 100 100 100 100 100 100 100 100 98
100 100 100 100 100 100 100 100 100 100 100 100 100 100 100 100 100 100 100 100 100 100 100 100 100 100 100 100 100 100 100 100 100 100 100 100 100 100 100 100 100 100 100 100
100 100 100 100 100 100 100 100 100 100 100 100 100 100 100 100 100 100 100 100 100 100 100 100 100 100 100 100 100 100 100 100 98 100 100 100 100 100 100 100 100 100 100 100
100 100 100 100 100 100 100 100 100 100 100 100 100 100 100 100 100 100 100 100 99 86 82 99 100 96 90 100 100 100 94 94 99 100 100 100 100 100 100 100 100 100 100 100
100 100 100 100 100 100 100 100 100 100 100 100 100 100 100 100 100 100 100 94 83 98 100 100 100 99 100 100 100 98 100 100 100 100 100 100 100 100 100 100 100 100 100 100
100 100 100 100 100 100 100 100 100 100 100 100 100 100 100 100 100 99 100 100 100 100 100 99 100 88 100 100 100 100 100 100 100 100 100 100 100 100 100 100 100 100 100 100
100 100 100 100 100 100 100 100 100 100 100 100 100 100 100 100 100 100 100 100 100 92 71 61 58 99 100 100 100 100 100 100 100 100 100 98 100 100 100 100 100 100 100 93
100 100 100 100 100 100 100 100 100 100 100 100 100 100 100 100 100 100 100 86 66 88 84 98 100 100 100 100 100 100 100 100 97 100 100 100 100 100 100 100 100 100 100 100
100 100 100 100 100 100 100 100 100 100 100 100 100 100 100 100 100 100 100 98 95 84 100 100 99 100 100 100 100 100 100 100 100 100 97 100 100 100 100 100 100 100 100 100
100 97 98 96 100 98 93 84 100 100 100 100 100 100 100 100 96 100 69 100 100 100 100 100 100 93 100 100 100 100 100 100 66 100 100 100 100 100 100 100 100 100 100 100